Wind_Speed
8 8 8 9 9 10 9 9 8 7 7 7 8 8 7 7 7 7 7 8 8 9 9 10 11 11 11 11 11 11 12 11 11 12 12 12 13 13 13 13 13 14 14 14
8 8 9 10 10 10 10 9 9 9 9 9 8 8 8 9 8 8 8 8 9 9 10 11 11 11 11 11 11 12 12 12 12 12 12 13 13 13 13 13 14 14 15 15
9 9 10 10 11 10 10 10 10 10 10 9 10 9 9 9 9 9 9 8 9 9 9 10 11 11 11 11 12 12 11 12 12 12 12 12 12 13 13 14 15 15 15 15
9 9 10 11 11 11 11 11 11 11 11 11 11 11 10 10 10 9 9 9 9 10 10 10 11 11 11 11 11 11 11 11 11 12 12 12 12 13 14 15 15 15 16 16
9 9 10 10 10 11 10 11 12 12 11 11 12 11 9 10 10 10 9 9 10 10 10 10 11 11 11 11 12 11 11 11 12 12 12 12 13 13 14 15 15 15 16 15
9 9 9 10 10 11 11 11 11 11 11 11 12 12 9 9 9 9 9 9 9 9 10 11 11 11 11 11 11 12 12 12 12 12 12 12 13 13 14 15 15 15 15 15
10 10 10 10 10 11 11 11 11 12 11 11 12 11 9 9 9 9 9 9 9 10 10 12 12 12 12 12 12 12 13 13 13 13 13 14 14 14 15 15 15 15 15 15
11 11 11 11 11 10 10 11 12 12 12 11 12 12 10 10 9 10 10 9 9 10 11 12 13 13 14 14 13 14 14 15 14 14 15 15 15 15 15 15 15 15 15 15
12 12 12 12 11 11 11 11 12 13 13 13 13 12 12 11 11 11 11 10 10 11 12 13 14 14 15 15 15 15 15 15 15 16 15 16 16 17 16 16 16 16 16 16
13 13 12 12 13 13 13 13 13 14 15 14 14 14 13 13 12 12 12 11 11 13 14 14 14 15 16 16 16 16 16 17 17 17 18 18 17 17 18 18 17 18 18 18
14 14 13 14 15 14 15 15 15 15 16 16 15 14 14 15 15 14 14 13 13 14 15 15 15 16 17 17 17 18 17 18 18 19 19 19 18 19 18 18 18 19 19 18
15 15 15 16 15 15 16 16 16 16 16 16 17 15 16 17 17 16 16 15 15 15 15 16 16 17 18 19 19 19 19 19 19 20 20 20 19 19 19 19 19 19 19 18
17 18 17 17 17 17 18 18 18 17 17 17 18 17 17 19 19 19 18 18 17 17 16 16 17 18 19 20 20 20 20 20 20 21 20 20 20 20 20 20 19 19 19 19
18 19 19 18 17 17 18 18 20 19 19 19 19 18 18 20 20 20 20 20 20 19 18 18 18 19 20 21 21 22 22 22 21 21 21 21 21 20 20 20 20 19 19 20
20 20 20 19 19 19 19 18 19 20 20 21 19 19 19 20 22 22 21 21 21 21 20 20 20 20 21 21 22 23 23 23 23 23 23 23 22 22 21 21 21 21 21 21
21 22 21 21 20 21 20 19 19 20 21 21 21 20 20 21 22 22 23 22 22 21 21 21 21 21 22 22 23 24 24 24 24 24 24 24 23 23 22 23 23 23 23 22
22 22 23 23 23 23 23 20 20 20 21 21 21 21 21 22 22 23 23 23 22 22 22 22 22 23 23 23 24 24 25 24 24 24 24 24 24 24 24 24 24 24 24 23
22 23 24 24 24 26 23 22 22 22 22 21 22 22 22 23 23 23 24 23 23 24 24 24 24 24 24 25 25 25 25 26 26 26 26 25 25 25 25 25 26 26 25 24
24 24 24 25 26 26 24 23 23 23 24 23 23 23 23 23 23 23 23 23 23 24 25 25 25 25 26 26 27 27 27 27 27 27 27 27 27 27 27 27 27 27 27 26
25 25 26 26 27 27 25 24 24 24 25 23 23 23 24 24 25 24 24 25 25 25 26 26 26 27 27 27 28 28 28 29 28 28 28 29 28 28 28 28 28 28 28 28
26 27 26 26 27 27 26 25 25 26 25 24 24 24 24 24 25 25 25 26 26 27 27 28 28 28 29 29 29 29 29 29 28 28 29 30 30 29 29 29 29 28 28 28
27 27 27 27 27 27 26 27 27 27 27 26 25 25 25 26 26 26 26 27 27 28 28 29 29 29 30 30 30 30 29 29 29 30 30 31 30 30 29 29 28 28 29 29
28 28 27 28 28 28 27 28 28 29 28 27 27 27 27 27 27 27 27 27 27 28 28 29 29 29 29 30 30 30 30 30 30 30 31 31 30 30 30 29 29 29 29 30
28 28 28 28 28 28 29 29 30 30 31 30 30 29 29 28 28 28 29 29 29 30 29 29 29 29 29 30 30 30 30 31 31 31 31 31 31 31 31 31 30 30 30 30
29 29 29 29 29 29 28 29 30 31 31 31 31 31 30 30 30 30 30 30 30 30 30 30 31 30 30 30 30 30 31 32 32 32 32 32 32 31 31 31 31 31 31 31
28 29 30 30 31 32 31 30 31 31 30 31 31 31 31 31 32 32 31 31 31 31 31 31 32 31 31 31 31 32 32 33 33 33 33 33 32 31 31 31 31 32 31 31
Wind_Direction
254 252 254 253 248 249 251 256 262 265 266 266 263 267 267 269 272 278 278 281 283 288 293 294 297 299 300 302 303 299 296 294 291 289 289 289 289 290 288 288 285 284 282 280
252 252 253 254 249 246 249 254 261 264 265 265 264 266 268 273 277 278 284 286 289 288 288 291 292 294 296 299 299 300 298 295 294 293 292 292 292 291 291 290 287 285 282 279
254 253 254 253 253 253 255 259 263 266 266 270 273 269 266 269 273 277 277 283 291 291 290 293 292 291 293 297 299 300 299 297 295 294 295 295 294 294 293 293 290 286 283 281
256 257 255 255 257 258 258 262 263 265 265 267 271 270 265 268 273 277 280 283 291 294 295 296 298 297 296 297 298 298 297 297 295 294 295 295 297 296 295 294 292 288 285 282
255 255 257 258 259 259 258 260 262 265 268 268 267 269 269 273 271 277 284 286 290 292 295 298 299 298 297 298 298 296 292 294 296 295 296 297 298 300 299 298 294 291 287 284
256 254 259 260 258 257 257 258 263 267 269 269 269 271 271 271 272 276 286 287 285 290 294 296 296 294 295 296 296 294 292 293 293 294 295 297 298 300 300 300 297 294 289 284
252 251 256 257 255 257 257 258 264 267 268 271 273 276 279 272 277 286 294 295 293 292 296 297 295 293 292 292 292 292 291 291 293 293 294 296 298 299 300 300 298 295 291 287
252 253 256 255 254 256 259 260 263 267 270 274 275 279 281 279 282 289 293 297 297 297 295 296 298 296 293 292 292 292 291 291 291 292 293 294 297 300 301 300 298 296 292 289
254 254 255 255 253 254 257 260 265 269 272 275 278 281 282 282 284 288 290 294 295 295 295 296 297 297 294 294 295 293 291 290 291 291 291 291 293 295 297 299 297 295 293 291
256 252 252 254 254 254 257 259 264 270 273 276 277 277 281 281 283 282 284 289 292 293 294 294 294 293 292 292 292 293 290 289 289 290 291 292 293 293 294 296 294 291 290 289
255 254 252 254 256 261 261 264 268 271 269 272 275 276 278 280 282 283 286 288 289 292 291 290 290 290 289 289 290 291 290 291 291 292 292 291 292 294 296 296 294 291 288 287
253 256 255 256 259 261 262 265 266 268 268 272 275 275 276 278 279 283 287 289 290 290 289 289 290 289 288 288 289 289 289 291 291 291 293 293 293 294 294 294 293 292 288 286
255 257 258 255 257 258 261 262 263 267 266 268 271 274 273 276 279 281 284 288 290 290 288 287 287 286 287 288 288 288 287 288 290 291 292 293 291 292 293 293 293 292 289 286
256 259 260 260 260 261 263 265 265 266 267 267 269 272 272 274 278 281 283 287 289 291 290 288 286 285 286 286 286 286 287 288 288 289 290 291 289 290 290 291 291 290 289 286
254 258 260 260 258 260 263 264 265 267 268 269 270 272 273 274 278 280 282 285 287 288 288 288 286 286 287 286 285 287 286 287 287 288 289 290 289 288 287 287 287 287 286 285
254 257 258 260 261 262 262 263 265 267 268 270 271 272 272 272 275 278 280 282 284 284 285 286 286 287 287 286 286 287 286 286 286 287 288 288 288 287 287 286 285 285 284 284
256 258 258 259 261 261 261 263 264 267 270 271 273 273 273 272 272 275 278 280 281 283 283 284 284 285 285 286 287 287 287 287 286 285 286 285 285 286 286 285 285 285 283 282
257 259 259 260 260 260 263 262 263 266 268 270 272 273 273 274 273 273 275 278 280 282 283 283 284 284 285 287 288 287 287 287 286 284 283 284 283 283 284 285 284 283 282 280
257 259 261 261 261 262 261 262 264 266 266 269 272 273 273 272 273 273 274 277 279 281 282 283 283 284 285 287 288 288 286 285 285 284 283 283 281 281 282 283 283 281 280 279
258 260 262 263 264 263 263 263 265 267 267 268 270 271 272 272 273 274 273 275 278 279 281 281 282 284 285 287 288 288 287 285 285 284 283 284 284 283 283 282 282 281 279 277
258 259 261 263 264 264 265 265 266 267 270 270 270 271 272 273 274 274 275 276 278 280 281 281 283 284 286 286 287 287 286 286 285 284 284 284 284 284 284 283 282 280 279 278
260 261 261 263 264 265 264 264 266 269 270 270 270 270 271 272 273 274 276 278 279 280 281 282 284 285 286 286 286 285 285 286 285 284 284 284 284 284 283 281 280 279 278 278
261 261 262 261 263 265 264 264 265 269 270 271 270 269 271 273 276 276 277 278 279 279 280 282 283 284 285 286 284 284 284 285 285 284 284 283 283 283 282 280 278 277 278 278
262 262 261 262 262 264 264 264 266 269 271 270 270 270 271 273 275 276 277 279 280 280 281 282 283 284 284 285 285 284 285 286 287 286 285 284 283 281 281 279 277 277 277 278
263 261 261 262 263 264 265 266 266 268 270 271 272 272 272 274 275 276 277 279 280 281 280 281 283 284 284 284 284 284 285 286 286 286 285 284 283 282 280 278 276 277 278 278
263 263 263 263 263 264 264 266 265 266 268 270 270 270 271 274 275 277 277 278 280 279 280 281 282 283 284 284 285 285 285 285 285 285 285 284 283 282 281 279 278 278 277 277
Height
5840 5841 5841 5841 5841 5841 5841 5841 5841 5842 5842 5842 5842 5842 5842 5842 5841 5842 5842 5841 5841 5840 5839 5838 5837 5836 5835 5834 5833 5832 5831 5830 5829 5828 5827 5827 5826 5825 5824 5823 5823 5822 5821 5821
5838 5838 5839 5838 5838 5838 5838 5839 5839 5839 5839 5839 5839 5840 5839 5839 5839 5839 5839 5839 5838 5838 5837 5836 5834 5833 5832 5832 5831 5829 5828 5827 5826 5825 5824 5823 5822 5821 5820 5819 5819 5818 5817 5816
5835 5836 5835 5836 5835 5836 5836 5836 5836 5836 5837 5836 5837 5837 5837 5836 5836 5836 5836 5836 5835 5834 5834 5832 5831 5830 5829 5828 5827 5826 5824 5823 5822 5822 5821 5820 5819 5817 5817 5815 5814 5813 5812 5811
5832 5833 5833 5833 5833 5833 5833 5833 5833 5833 5834 5834 5834 5834 5834 5833 5833 5833 5833 5832 5832 5831 5830 5829 5828 5827 5826 5825 5824 5823 5821 5820 5819 5818 5818 5816 5815 5814 5813 5811 5810 5808 5807 5806
5829 5830 5829 5830 5830 5830 5830 5830 5830 5830 5830 5831 5830 5830 5831 5830 5829 5829 5829 5829 5829 5828 5827 5826 5825 5824 5823 5822 5821 5820 5819 5817 5816 5815 5814 5813 5812 5810 5809 5807 5806 5804 5803 5801
5826 5827 5827 5827 5827 5827 5827 5828 5827 5827 5827 5828 5827 5827 5828 5827 5826 5826 5826 5826 5825 5825 5824 5823 5822 5821 5820 5819 5818 5817 5815 5814 5813 5812 5811 5810 5808 5807 5805 5803 5801 5800 5798 5797
5823 5824 5824 5824 5824 5824 5824 5825 5825 5824 5824 5825 5824 5823 5825 5824 5824 5823 5823 5822 5822 5821 5820 5819 5818 5817 5816 5816 5815 5814 5812 5811 5810 5809 5808 5806 5804 5803 5801 5799 5797 5796 5794 5793
5820 5821 5821 5821 5821 5821 5821 5822 5823 5822 5821 5822 5821 5820 5822 5821 5821 5820 5819 5819 5818 5818 5817 5816 5815 5814 5813 5812 5811 5810 5809 5808 5806 5805 5804 5802 5801 5799 5797 5795 5794 5792 5791 5790
5816 5817 5817 5817 5817 5818 5818 5818 5819 5818 5817 5817 5817 5817 5817 5817 5817 5816 5816 5816 5815 5814 5813 5812 5811 5810 5809 5808 5807 5806 5805 5804 5802 5801 5800 5798 5797 5795 5793 5792 5790 5788 5787 5786
5812 5813 5814 5814 5814 5814 5815 5815 5814 5814 5813 5813 5814 5813 5814 5813 5812 5813 5813 5812 5811 5811 5810 5808 5807 5806 5805 5804 5803 5802 5801 5800 5798 5797 5795 5794 5792 5791 5789 5787 5786 5784 5782 5781
5808 5809 5810 5810 5810 5811 5811 5811 5810 5810 5810 5810 5809 5812 5810 5809 5808 5808 5808 5807 5807 5807 5806 5805 5803 5802 5801 5800 5799 5798 5796 5795 5794 5792 5790 5789 5787 5786 5784 5782 5781 5779 5777 5776
5804 5805 5805 5806 5807 5806 5806 5806 5806 5806 5806 5805 5805 5809 5805 5805 5804 5803 5803 5803 5802 5802 5801 5800 5799 5798 5797 5795 5794 5793 5792 5790 5789 5787 5786 5784 5782 5780 5779 5777 5775 5774 5772 5771
5800 5800 5800 5801 5803 5802 5801 5801 5801 5801 5801 5801 5800 5804 5801 5800 5799 5798 5798 5798 5797 5797 5796 5795 5794 5793 5791 5790 5789 5788 5786 5785 5783 5782 5780 5778 5777 5775 5774 5772 5770 5768 5767 5765
5795 5795 5796 5797 5796 5796 5796 5796 5796 5796 5796 5796 5796 5797 5796 5795 5794 5794 5793 5793 5792 5791 5791 5790 5789 5787 5786 5785 5783 5782 5780 5779 5778 5776 5774 5773 5771 5770 5768 5766 5765 5763 5761 5760
5789 5789 5790 5790 5791 5791 5791 5791 5791 5791 5791 5791 5791 5791 5791 5790 5789 5788 5788 5787 5786 5786 5785 5784 5782 5781 5780 5778 5777 5776 5774 5773 5771 5770 5768 5767 5765 5764 5762 5760 5759 5757 5755 5754
5783 5784 5784 5785 5785 5784 5784 5785 5785 5785 5785 5784 5785 5786 5785 5784 5783 5782 5782 5781 5780 5780 5779 5777 5776 5775 5774 5772 5770 5769 5768 5766 5765 5763 5762 5760 5759 5757 5755 5754 5752 5751 5749 5747
5777 5778 5778 5779 5779 5777 5778 5780 5780 5779 5779 5779 5778 5780 5779 5778 5777 5776 5775 5774 5774 5773 5772 5771 5770 5768 5767 5765 5764 5762 5761 5759 5758 5756 5755 5753 5751 5750 5748 5747 5745 5744 5742 5741
5770 5770 5770 5771 5772 5771 5775 5774 5774 5773 5773 5773 5772 5772 5772 5771 5770 5769 5769 5768 5767 5766 5765 5764 5763 5762 5760 5758 5757 5755 5754 5752 5750 5749 5747 5745 5744 5742 5741 5739 5738 5736 5735 5733
5763 5763 5763 5763 5763 5763 5767 5767 5766 5766 5765 5766 5766 5765 5765 5764 5763 5762 5761 5761 5760 5759 5758 5757 5756 5754 5753 5751 5749 5748 5746 5744 5743 5741 5739 5738 5736 5734 5733 5731 5730 5728 5727 5726
5755 5756 5756 5755 5755 5755 5759 5760 5758 5759 5758 5759 5758 5758 5758 5757 5757 5756 5755 5753 5752 5752 5751 5749 5748 5747 5745 5743 5742 5740 5738 5736 5734 5732 5731 5729 5728 5726 5725 5723 5721 5720 5718 5717
5748 5748 5748 5748 5747 5747 5750 5751 5751 5751 5752 5751 5750 5750 5750 5749 5749 5749 5747 5746 5745 5744 5743 5741 5740 5739 5737 5735 5733 5732 5730 5728 5726 5724 5722 5721 5719 5717 5716 5714 5713 5711 5710 5709
5739 5740 5740 5740 5739 5742 5742 5741 5742 5742 5742 5742 5742 5742 5742 5741 5740 5740 5739 5738 5737 5735 5734 5733 5731 5730 5728 5726 5725 5723 5721 5719 5717 5716 5714 5712 5710 5709 5707 5705 5704 5702 5701 5700
5730 5731 5731 5732 5734 5733 5733 5732 5733 5733 5733 5734 5733 5733 5733 5732 5731 5731 5730 5729 5728 5727 5726 5724 5723 5721 5719 5717 5715 5714 5712 5710 5708 5706 5705 5703 5701 5699 5698 5696 5695 5694 5692 5691
5722 5722 5722 5722 5723 5724 5724 5724 5724 5724 5724 5724 5724 5724 5724 5724 5723 5722 5721 5720 5719 5718 5717 5715 5714 5712 5710 5708 5706 5704 5702 5700 5699 5697 5695 5693 5692 5690 5689 5687 5686 5685 5683 5682
5713 5713 5713 5713 5715 5714 5714 5715 5715 5715 5714 5714 5714 5714 5714 5714 5713 5713 5712 5711 5710 5709 5707 5706 5704 5703 5701 5699 5697 5695 5693 5691 5689 5687 5685 5683 5682 5680 5679 5677 5676 5675 5674 5672
5704 5704 5704 5704 5705 5705 5705 5705 5705 5705 5705 5705 5704 5704 5704 5703 5703 5703 5702 5701 5700 5699 5697 5696 5695 5693 5691 5689 5687 5685 5683 5681 5679 5677 5675 5673 5672 5670 5669 5668 5666 5665 5664 5663